Weather History for Greenville Downtown, SC

Change the Weather History Date:

Wednesday, April 4, 2012

  Actual Average Record
Temperature  
Mean Temperature 70 °F -  
Max Temperature 84 °F 67 °F 84 °F (1999)
Min Temperature 57 °F 48 °F 37 °F (2013)
Cooling Degree Days 4    
Growing Degree Days 20 (Base 50)    
Moisture  
Dew Point 59 °F    
Average Humidity 79    
Maximum Humidity 100    
Minimum Humidity 42    
Precipitation  
Precipitation 0.07 in - - ()
Sea Level Pressure  
Sea Level Pressure 29.80 in    
Wind  
Wind Speed 3 mph (SW)    
Max Wind Speed 12 mph    
Max Gust Speed 41 mph    
Visibility 7 miles    
Events Fog , Rain    
Averages and records for this station are not official NWS values.
T = Trace of Precipitation, MM = Missing Value Source: NWS Daily Summary

Daily Weather History Graph

Daily Weather History Graph

Search for Another Location

Airport:

Trip Planner

Search our weather history database for the weather conditions in past years. The results will help you decide how hot, cold, wet, or windy it might be!

Date:

Astronomy

Apr. 04, 2012 Rise Set
Actual Time 7:11 AM EDT 7:53 PM EDT
Civil Twilight 6:45 AM EDT 8:18 PM EDT
Nautical Twilight 6:15 AM EDT 8:49 PM EDT
Astronomical Twilight 5:45 AM EDT 9:20 PM EDT
Moon 5:49 PM EDT (4/4) 5:27 AM EDT (4/4)
Length of Visible Light 13h 32m
Length of Day
12h 41m
Waxing Gibbous, 93% of the Moon is Illuminated
Apr 4
Waxing Gibbous
Apr 6
Full
Apr 13
Last Quarter
Apr 21
New
Apr 29
First Quarter

Hourly Weather History & Observations

Time (EDT) Temp. Heat Index Dew Point Humidity Pressure Visibility Wind Dir Wind Speed Gust Speed Precip Events Conditions
12:53 AM 64.9 °F - 60.1 °F 84% 29.94 in 10.0 mi Calm Calm - N/A   Overcast
1:53 AM 62.1 °F - 60.1 °F 93% 29.90 in 9.0 mi SSE 5.8 mph - N/A   Clear
2:53 AM 61.0 °F - 59.0 °F 93% 29.86 in 9.0 mi Calm Calm - N/A   Clear
3:53 AM 62.1 °F - 59.0 °F 90% 29.86 in 10.0 mi Calm Calm - N/A   Clear
5:53 AM 60.1 °F - 57.9 °F 93% 29.84 in 9.0 mi Calm Calm - N/A   Clear
6:53 AM 57.9 °F - 57.0 °F 97% 29.85 in 6.0 mi Calm Calm - N/A   Clear
7:07 AM 57.2 °F - 55.4 °F 94% 29.86 in 2.5 mi SW 4.6 mph - N/A   Scattered Clouds
7:09 AM 57.2 °F - 55.4 °F 94% 29.86 in 1.0 mi SW 5.8 mph - N/A   Mist
7:12 AM 57.2 °F - 57.2 °F 100% 29.86 in 0.2 mi SW 4.6 mph - N/A Fog Fog
7:53 AM 59.0 °F - 57.9 °F 96% 29.86 in 0.2 mi WSW 3.5 mph - N/A Fog Fog
8:23 AM 59.0 °F - 57.2 °F 94% 29.88 in 0.5 mi WSW 3.5 mph - N/A Fog Fog
8:31 AM 59.0 °F - 57.2 °F 94% 29.88 in 1.0 mi WSW 3.5 mph - N/A   Mist
8:36 AM 60.8 °F - 59.0 °F 94% 29.88 in 2.5 mi WSW 3.5 mph - N/A   Overcast
8:39 AM 60.8 °F - 59.0 °F 94% 29.87 in 6.0 mi West 4.6 mph - N/A   Partly Cloudy
8:53 AM 60.1 °F - 59.0 °F 96% 29.86 in 9.0 mi West 3.5 mph - N/A   Scattered Clouds
9:53 AM 66.0 °F - 60.1 °F 81% 29.85 in 10.0 mi Calm Calm - N/A   Clear
11:53 AM 75.9 °F - 60.1 °F 58% 29.83 in 10.0 mi WSW 6.9 mph - N/A   Clear
12:53 PM 79.0 °F - 59.0 °F 50% 29.80 in 10.0 mi SSW 10.4 mph - N/A   Clear
1:53 PM 82.0 °F 82.0 °F 57.9 °F 44% 29.78 in 10.0 mi SW 6.9 mph - N/A   Clear
2:53 PM 82.0 °F 81.7 °F 57.0 °F 42% 29.73 in 10.0 mi SW 10.4 mph 16.1 mph N/A   Clear
3:53 PM 79.0 °F - 57.0 °F 47% 29.70 in 10.0 mi West 5.8 mph - N/A   Mostly Cloudy
4:49 PM 69.8 °F - 60.8 °F 73% 29.73 in 1.8 mi Variable 5.8 mph 41.4 mph 0.06 in Rain Heavy Rain
4:53 PM 69.1 °F - 59.0 °F 70% 29.70 in 1.8 mi WSW 11.5 mph 41.4 mph 0.07 in Rain Rain
4:56 PM 69.8 °F - 57.2 °F 64% 29.73 in 10.0 mi SW 9.2 mph 16.1 mph 0.00 in Rain Light Rain
6:53 PM 73.9 °F - 60.1 °F 62% 29.69 in 10.0 mi West 4.6 mph - N/A   Clear
7:53 PM 73.0 °F - 60.1 °F 64% 29.70 in 10.0 mi Calm Calm - N/A   Clear
8:53 PM 71.1 °F - 62.1 °F 73% 29.71 in 10.0 mi Calm Calm - N/A   Clear
9:53 PM 68.0 °F - 63.0 °F 84% 29.72 in 10.0 mi Calm Calm - N/A   Clear
10:53 PM 69.1 °F - 61.0 °F 75% 29.70 in 10.0 mi Calm Calm - N/A   Clear
11:53 PM 66.9 °F - 61.0 °F 81% 29.70 in 10.0 mi Calm Calm - N/A   Clear